Regional Weather Roundup
Issued by NWS

Home | Current Version | Previous Version | Text Only | Print | Product List | Glossary On
Versions: 1 2 3 4 5 6 7 8 9 10 11 12 13 14 15 16 17 18 19 20 21 22 23 24 25 26 27 28 29 30 31 32 33 34 35 36 37 38 39 40 41 42 43 44 45 46 47 48 49 50
244
ASUS43 KDTX 260710
RWRMI
MICHIGAN HOURLY REGIONAL WEATHER ROUNDUP
NATIONAL WEATHER SERVICE DETROIT/PONTIAC MI
ISSUED BY NATIONAL WEATHER SERVICE GRAND RAPIDS MI
300 AM EDT WED JUL 26 2017

NOTE: "FAIR" INDICATES FEW OR NO CLOUDS BELOW 12,000 FEET WITH NO
SIGNIFICANT WEATHER AND/OR OBSTRUCTION TO VISIBILITY.

MIZ047>049-052>055-059>063-066>070-074>076-081>083-260800-
SOUTHEAST LOWER MICHIGAN

CITY           SKY/WX    TMP DP  RH WIND       PRES   REMARKS
ADRIAN         CLEAR     60  57  89 CALM      30.20S
ALMA           CLOUDY    62  56  79 S5        30.16F
ANN ARBOR      FOG       52  52 100 CALM      30.19S VSB 1/2
BAD AXE        CLEAR     59  57  92 S5        30.19F
DETROIT CITY   CLEAR     65  60  84 SE3       30.19F
DETROIT        MOCLDY    64  59  83 CALM      30.20S
FLINT          CLEAR     59  57  93 S3        30.19F
GROSSE ILE     PTCLDY    67  62  82 CALM      30.17F
HILLSDALE      PTCLDY    59  55  88 CALM      30.19S
HOWELL         PTCLDY    59  58  94 CALM      30.19F

CITY           SKY/WX    TMP DP  RH WIND       PRES   REMARKS
JACKSON        PTCLDY    60  55  83 CALM      30.19F
LANSING        CLOUDY    63  55  75 S7        30.19F
MASON          CLOUDY    56  55  95 CALM      30.19S
MONROE         CLEAR     60  57  91 CALM      30.17F
MT. CLEMENS    CLEAR     65  63  91 SE8       30.18F
PONTIAC        CLEAR     64  60  87 CALM      30.19S
PORT HOPE        N/A     63  59  87 VRB3      30.16F
PORT HURON     CLEAR     57  55  94 CALM      30.20S FOG
TRI CITIES     PTCLDY    64  58  80 S8        30.16F
YPSILANTI      CLEAR     61  59  93 CALM      30.19S
$$
MIZ043>046-050>051-056>058-064>065-071>073-077>080-260800-
SOUTHWEST LOWER MICHIGAN

CITY           SKY/WX    TMP DP  RH WIND       PRES   REMARKS
BATTLE CREEK   PTCLDY    64  58  80 SE6       30.18F
BENTON HARBOR  CLEAR     62  56  80 SE3       30.15S
BIG RAPIDS     CLOUDY    63  56  77 SE6       30.15R
COLDWATER      PTCLDY    60  60  99 CALM      30.20R
HOLLAND        MOCLDY    64  58  80 S5        30.16S
GRAND RAPIDS   CLOUDY    65  58  78 S9        30.15F
KALAMAZOO      CLOUDY    64  56  75 CALM      30.17F
MARSHALL       PTCLDY    60  59  96 CALM      30.19R
MOUNT PLEASANT PTCLDY    67  54  61 S5        30.14F
MUSKEGON       CLOUDY    69  57  65 S6        30.13F
STURGIS        PTCLDY    62  58  88 SE5       30.18R
$$
MIZ016>042-260800-
NORTHERN LOWER MICHIGAN

CITY           SKY/WX    TMP DP  RH WIND       PRES   REMARKS
ALPENA         MOCLDY    63  58  83 S9        30.11F
BEAVER ISLAND  CLOUDY    68  59  72 SW13G20   30.06F
BELLAIRE       CLOUDY    66  59  79 CALM      30.10R
CADILLAC       CLOUDY    67  53  60 S6        30.13S
CHARLEVOIX     CLOUDY    67  62  82 S7        30.10F
GAYLORD        CLOUDY    65  54  67 SW10      30.13R
HOUGHTON LAKE  CLOUDY    67  54  63 S9        30.15F
MANISTEE       CLOUDY    66  56  70 S6        30.11S
OSCODA         CLOUDY    65  57  75 S7        30.13F
PELLSTON       CLOUDY    64  60  87 CALM      30.09R
TRAVERSE CITY  CLOUDY    67  59  75 S3        30.09R
LUDINGTON      CLOUDY    66  58  76 SE5       30.11S
$$
MIZ007>008-015-260800-
EASTERN UPPER MICHIGAN

CITY           SKY/WX    TMP DP  RH WIND       PRES   REMARKS
KINROSS        CLOUDY    65  59  81 S5        30.08R
MACKINAC ISLAN CLOUDY    66  61  85 S7        30.08S
NEWBERRY       RAIN      61  60  97 SW14      30.04F
S. S. MARIE    CLOUDY    63  57  81 S5        30.07S
$$
MIZ004>006-011>014-085-260800-
CENTRAL UPPER MICHIGAN

CITY           SKY/WX    TMP DP  RH WIND       PRES   REMARKS
MANISTIQUE     CLOUDY    66  62  87 SW13G23   30.04F
ESCANABA       CLOUDY    69  62  78 S13G18    30.02F
MENOMINEE      CLOUDY    70  63  78 SW12G18   30.04F
SAWYER-GWINN   CLOUDY    64  60  87 S10       30.01F
$$
MIZ001>003-009>011-084-260800-
WESTERN UPPER MICHIGAN

CITY           SKY/WX    TMP DP  RH WIND       PRES   REMARKS
IRON MOUNTAIN  CLOUDY    67  60  78 S7        30.01F
HOUGHTON       CLOUDY    73  62  68 SW8       29.91F
COPPER HARBOR    N/A     71  60  68 W8G17     29.88F
IRONWOOD       LGT RAIN  71  66  84 SW9       29.95F
$$

ABBREVIATIONS USED IN REMARKS
   TC - TEMPERATURE IN CELSIUS
  WCI - WIND CHILL INDEX
   HX - HEAT INDEX
  VSB - VISIBILITY





USA.gov is the U.S. government's official web portal to all federal, state and local government web resources and services.